Time,TemperatureF,DewpointF,PressureIn,WindDirection,WindDirectionDegrees,WindSpeedMPH,WindSpeedGustMPH,Humidity,HourlyPrecipIn,Conditions,Clouds,dailyrainin,SoftwareType,DateUTC
2013-09-17 00:00:00,81.6,76.0,30.03,ENE,67,15.9,20.0,83,0.00,,,0.09,Rainwise IP-100,2013-09-17 04:00:00,
2013-09-17 00:01:00,81.6,75.0,30.02,ENE,67,9.1,18.0,82,0.00,,,0.00,Rainwise IP-100,2013-09-17 04:01:00,
2013-09-17 00:06:00,81.7,75.0,30.03,East,90,8.6,19.0,82,0.00,,,0.00,Rainwise IP-100,2013-09-17 04:06:00,
2013-09-17 00:11:00,81.6,75.0,30.02,ENE,67,5.6,18.0,82,0.00,,,0.00,Rainwise IP-100,2013-09-17 04:11:00,
2013-09-17 00:16:00,81.4,75.0,30.03,ENE,67,8.6,17.0,82,0.00,,,0.00,Rainwise IP-100,2013-09-17 04:16:00,
2013-09-17 00:21:00,81.4,75.0,30.02,NE,45,7.7,14.0,82,0.00,,,0.00,Rainwise IP-100,2013-09-17 04:21:00,
2013-09-17 00:26:00,81.4,76.0,30.02,ESE,112,13.1,15.0,83,0.00,,,0.00,Rainwise IP-100,2013-09-17 04:26:00,
2013-09-17 00:31:00,81.4,76.0,30.02,ENE,67,12.1,17.0,83,0.00,,,0.00,Rainwise IP-100,2013-09-17 04:31:00,
2013-09-17 00:37:00,81.3,76.0,30.02,ENE,67,11.9,20.0,83,0.00,,,0.00,Rainwise IP-100,2013-09-17 04:37:00,
2013-09-17 00:42:00,81.2,76.0,30.02,ENE,67,5.6,19.0,83,0.00,,,0.00,Rainwise IP-100,2013-09-17 04:42:00,
2013-09-17 00:47:00,81.2,76.0,30.02,NE,45,12.8,16.0,84,0.00,,,0.00,Rainwise IP-100,2013-09-17 04:47:00,
2013-09-17 00:52:00,81.2,76.0,30.02,ESE,112,9.8,16.0,84,0.00,,,0.00,Rainwise IP-100,2013-09-17 04:52:00,
2013-09-17 00:57:00,81.1,76.0,30.02,SSE,157,5.6,18.0,84,0.00,,,0.00,Rainwise IP-100,2013-09-17 04:57:00,
2013-09-17 01:02:00,81.1,76.0,30.01,ENE,67,12.1,13.0,84,0.00,,,0.00,Rainwise IP-100,2013-09-17 05:02:00,
2013-09-17 01:07:00,81.0,76.0,30.01,ENE,67,7.2,15.0,84,0.00,,,0.00,Rainwise IP-100,2013-09-17 05:07:00,
2013-09-17 01:13:00,81.0,76.0,30.01,East,90,10.7,14.0,84,0.00,,,0.00,Rainwise IP-100,2013-09-17 05:13:00,
2013-09-17 01:18:00,81.0,76.0,30.01,ENE,67,7.7,13.0,84,0.00,,,0.00,Rainwise IP-100,2013-09-17 05:18:00,
2013-09-17 01:23:00,81.0,76.0,30.01,East,90,2.6,12.0,84,0.00,,,0.00,Rainwise IP-100,2013-09-17 05:23:00,
2013-09-17 01:28:00,81.0,76.0,30.01,ENE,67,12.1,12.1,84,0.00,,,0.00,Rainwise IP-100,2013-09-17 05:28:00,
2013-09-17 01:33:00,81.0,76.0,30.00,South,180,2.6,12.0,84,0.00,,,0.00,Rainwise IP-100,2013-09-17 05:33:00,
2013-09-17 01:38:00,81.0,76.0,30.01,ENE,67,9.1,13.0,85,0.00,,,0.00,Rainwise IP-100,2013-09-17 05:38:00,
2013-09-17 01:43:00,80.9,76.0,30.00,East,90,3.5,12.0,84,0.00,,,0.00,Rainwise IP-100,2013-09-17 05:43:00,
2013-09-17 01:48:00,80.8,75.0,30.00,ENE,67,4.2,14.0,83,0.00,,,0.00,Rainwise IP-100,2013-09-17 05:48:00,
2013-09-17 01:54:00,81.0,75.0,29.99,ENE,67,3.3,12.0,83,0.00,,,0.00,Rainwise IP-100,2013-09-17 05:54:00,
2013-09-17 01:59:00,81.1,75.0,30.00,East,90,7.5,12.0,83,0.00,,,0.00,Rainwise IP-100,2013-09-17 05:59:00,
2013-09-17 02:04:00,81.0,75.0,29.99,ENE,67,7.2,13.0,83,0.00,,,0.00,Rainwise IP-100,2013-09-17 06:04:00,
2013-09-17 02:09:00,81.1,75.0,29.99,East,90,6.3,13.0,83,0.00,,,0.00,Rainwise IP-100,2013-09-17 06:09:00,
2013-09-17 02:14:00,80.9,75.0,29.99,East,90,8.2,12.0,83,0.00,,,0.00,Rainwise IP-100,2013-09-17 06:14:00,
2013-09-17 02:19:00,80.9,75.0,29.99,East,90,5.6,11.0,83,0.00,,,0.00,Rainwise IP-100,2013-09-17 06:19:00,
2013-09-17 02:24:00,80.9,75.0,29.99,ENE,67,10.0,14.0,83,0.00,,,0.00,Rainwise IP-100,2013-09-17 06:24:00,
2013-09-17 02:30:00,81.0,76.0,29.98,East,90,3.7,13.0,84,0.00,,,0.00,Rainwise IP-100,2013-09-17 06:30:00,
2013-09-17 02:35:00,81.1,76.0,29.99,ESE,112,2.8,12.0,84,0.00,,,0.00,Rainwise IP-100,2013-09-17 06:35:00,
2013-09-17 02:40:00,81.0,76.0,29.99,ESE,112,5.4,14.0,84,0.00,,,0.00,Rainwise IP-100,2013-09-17 06:40:00,
2013-09-17 02:45:00,81.0,76.0,29.99,ESE,112,7.9,13.0,85,0.00,,,0.00,Rainwise IP-100,2013-09-17 06:45:00,
2013-09-17 02:50:00,81.1,76.0,29.99,ESE,112,1.6,8.0,85,0.00,,,0.00,Rainwise IP-100,2013-09-17 06:50:00,
2013-09-17 02:55:00,80.8,76.0,29.99,ENE,67,3.7,10.0,85,0.00,,,0.00,Rainwise IP-100,2013-09-17 06:55:00,
2013-09-17 03:00:00,80.3,74.0,29.98,SSE,157,4.9,9.0,84,0.00,,,0.00,Rainwise IP-100,2013-09-17 07:00:00,
2013-09-17 03:05:00,79.7,74.0,29.99,ESE,112,3.7,11.0,83,0.00,,,0.00,Rainwise IP-100,2013-09-17 07:05:00,
2013-09-17 03:11:00,79.2,73.0,29.98,ESE,112,7.5,9.0,82,0.00,,,0.00,Rainwise IP-100,2013-09-17 07:11:00,
2013-09-17 03:16:00,79.4,73.0,29.98,SSE,157,6.5,9.0,81,0.00,,,0.00,Rainwise IP-100,2013-09-17 07:16:00,
2013-09-17 03:21:00,79.7,73.0,29.98,ESE,112,1.6,7.0,80,0.00,,,0.00,Rainwise IP-100,2013-09-17 07:21:00,
2013-09-17 03:26:00,80.1,73.0,29.98,ENE,67,0.0,8.0,80,0.00,,,0.00,Rainwise IP-100,2013-09-17 07:26:00,
2013-09-17 03:31:00,80.6,74.0,29.98,ENE,67,2.6,8.0,82,0.00,,,0.00,Rainwise IP-100,2013-09-17 07:31:00,
2013-09-17 03:36:00,80.8,75.0,29.97,ENE,67,3.5,9.0,84,0.00,,,0.00,Rainwise IP-100,2013-09-17 07:36:00,
2013-09-17 03:41:00,81.0,76.0,29.97,ENE,67,4.9,10.0,86,0.00,,,0.00,Rainwise IP-100,2013-09-17 07:41:00,
2013-09-17 03:47:00,81.0,76.0,29.97,ESE,112,2.3,10.0,87,0.00,,,0.00,Rainwise IP-100,2013-09-17 07:47:00,
2013-09-17 03:52:00,81.0,76.0,29.97,ESE,112,2.1,6.0,87,0.00,,,0.00,Rainwise IP-100,2013-09-17 07:52:00,
2013-09-17 03:57:00,80.9,76.0,29.98,ESE,112,2.1,9.0,86,0.00,,,0.00,Rainwise IP-100,2013-09-17 07:57:00,
2013-09-17 04:02:00,80.6,76.0,29.98,ESE,112,10.0,10.0,86,0.00,,,0.00,Rainwise IP-100,2013-09-17 08:02:00,
2013-09-17 04:07:00,80.8,76.0,29.98,SSE,157,3.0,10.0,85,0.00,,,0.00,Rainwise IP-100,2013-09-17 08:07:00,
2013-09-17 04:12:00,81.2,76.0,29.98,SE,135,3.0,9.0,86,0.00,,,0.00,Rainwise IP-100,2013-09-17 08:12:00,
2013-09-17 04:17:00,81.2,76.0,29.98,ESE,112,4.9,11.0,85,0.00,,,0.00,Rainwise IP-100,2013-09-17 08:17:00,
2013-09-17 04:22:00,81.0,76.0,29.98,ESE,112,4.7,11.0,84,0.00,,,0.00,Rainwise IP-100,2013-09-17 08:22:00,
2013-09-17 04:28:00,81.2,75.0,29.98,SSE,157,1.2,9.0,82,0.00,,,0.00,Rainwise IP-100,2013-09-17 08:28:00,
2013-09-17 04:33:00,81.4,75.0,29.98,ESE,112,4.4,8.0,82,0.00,,,0.00,Rainwise IP-100,2013-09-17 08:33:00,
2013-09-17 04:38:00,81.5,75.0,29.98,ESE,112,4.2,8.0,82,0.00,,,0.00,Rainwise IP-100,2013-09-17 08:38:00,
2013-09-17 04:43:00,81.5,75.0,29.97,East,90,10.0,10.0,82,0.00,,,0.00,Rainwise IP-100,2013-09-17 08:43:00,
2013-09-17 04:48:00,81.5,76.0,29.98,SE,135,1.2,10.0,83,0.00,,,0.00,Rainwise IP-100,2013-09-17 08:48:00,
2013-09-17 04:53:00,81.4,76.0,29.97,SSE,157,3.7,5.0,83,0.00,,,0.00,Rainwise IP-100,2013-09-17 08:53:00,
2013-09-17 04:58:00,81.3,76.0,29.97,SSE,157,7.7,8.0,83,0.00,,,0.00,Rainwise IP-100,2013-09-17 08:58:00,
2013-09-17 05:04:00,81.3,74.0,29.97,SSW,202,5.6,9.0,81,0.00,,,0.00,Rainwise IP-100,2013-09-17 09:04:00,
2013-09-17 05:09:00,81.4,74.0,29.97,SSE,157,3.7,9.0,81,0.00,,,0.00,Rainwise IP-100,2013-09-17 09:09:00,
2013-09-17 05:14:00,81.6,75.0,29.97,ESE,112,0.0,7.0,81,0.00,,,0.00,Rainwise IP-100,2013-09-17 09:14:00,
2013-09-17 05:19:00,81.6,75.0,29.97,ENE,67,3.7,10.0,82,0.00,,,0.00,Rainwise IP-100,2013-09-17 09:19:00,
2013-09-17 05:24:00,81.5,75.0,29.97,East,90,3.0,8.0,82,0.00,,,0.00,Rainwise IP-100,2013-09-17 09:24:00,
2013-09-17 05:29:00,81.6,75.0,29.98,ENE,67,0.0,5.0,82,0.00,,,0.00,Rainwise IP-100,2013-09-17 09:29:00,
2013-09-17 05:34:00,81.7,75.0,29.97,ESE,112,0.0,6.0,82,0.00,,,0.00,Rainwise IP-100,2013-09-17 09:34:00,
2013-09-17 05:39:00,81.7,76.0,29.97,East,90,0.0,5.0,84,0.00,,,0.00,Rainwise IP-100,2013-09-17 09:39:00,
2013-09-17 05:45:00,81.5,76.0,29.97,ESE,112,0.0,6.0,84,0.00,,,0.00,Rainwise IP-100,2013-09-17 09:45:00,
2013-09-17 05:50:00,81.5,76.0,29.97,ENE,67,0.0,5.0,83,0.00,,,0.00,Rainwise IP-100,2013-09-17 09:50:00,
2013-09-17 05:52:00,81.6,76.0,29.97,ESE,112,1.6,5.0,83,0.00,,,0.00,Rainwise IP-100,2013-09-17 09:52:00,
2013-09-17 05:57:00,81.8,76.0,29.98,ESE,112,1.6,6.0,83,0.00,,,0.00,Rainwise IP-100,2013-09-17 09:57:00,
2013-09-17 06:02:00,81.5,76.0,29.98,ESE,112,2.8,5.0,83,0.00,,,0.00,Rainwise IP-100,2013-09-17 10:02:00,
2013-09-17 06:08:00,81.5,75.0,29.98,ESE,112,1.9,6.0,82,0.00,,,0.00,Rainwise IP-100,2013-09-17 10:08:00,
2013-09-17 06:13:00,81.8,75.0,29.98,East,90,2.1,6.0,82,0.00,,,0.00,Rainwise IP-100,2013-09-17 10:13:00,
2013-09-17 06:18:00,81.9,76.0,29.99,ESE,112,4.2,7.0,82,0.00,,,0.00,Rainwise IP-100,2013-09-17 10:18:00,
2013-09-17 06:23:00,81.8,76.0,29.98,ESE,112,4.9,8.0,83,0.00,,,0.00,Rainwise IP-100,2013-09-17 10:23:00,
2013-09-17 06:28:00,81.7,75.0,29.99,East,90,2.1,10.0,82,0.00,,,0.00,Rainwise IP-100,2013-09-17 10:28:00,
2013-09-17 06:33:00,81.8,75.0,29.98,SSE,157,2.1,7.0,81,0.00,,,0.00,Rainwise IP-100,2013-09-17 10:33:00,
2013-09-17 06:38:00,81.9,75.0,29.99,ENE,67,4.9,5.0,81,0.00,,,0.00,Rainwise IP-100,2013-09-17 10:38:00,
2013-09-17 06:43:00,81.9,76.0,29.99,East,90,1.2,5.0,82,0.00,,,0.00,Rainwise IP-100,2013-09-17 10:43:00,
2013-09-17 06:49:00,81.8,75.0,29.98,ESE,112,4.0,10.0,82,0.00,,,0.00,Rainwise IP-100,2013-09-17 10:49:00,
2013-09-17 06:54:00,81.8,75.0,29.99,East,90,4.0,7.0,82,0.00,,,0.00,Rainwise IP-100,2013-09-17 10:54:00,
2013-09-17 06:59:00,81.7,75.0,29.99,East,90,3.3,7.0,82,0.00,,,0.00,Rainwise IP-100,2013-09-17 10:59:00,
2013-09-17 07:04:00,81.6,75.0,29.99,ENE,67,2.3,7.0,81,0.00,,,0.00,Rainwise IP-100,2013-09-17 11:04:00,
2013-09-17 07:09:00,81.7,75.0,29.99,East,90,1.2,8.0,81,0.00,,,0.00,Rainwise IP-100,2013-09-17 11:09:00,
2013-09-17 07:14:00,81.7,75.0,29.99,ENE,67,4.2,4.2,81,0.00,,,0.00,Rainwise IP-100,2013-09-17 11:14:00,
2013-09-17 07:19:00,81.6,75.0,29.99,East,90,3.5,8.0,82,0.00,,,0.00,Rainwise IP-100,2013-09-17 11:19:00,
2013-09-17 07:20:00,81.6,75.0,29.99,East,90,3.5,8.0,82,0.00,,,0.00,Rainwise IP-100,2013-09-17 11:20:00,
2013-09-17 07:25:00,81.7,75.0,30.00,ENE,67,4.9,7.0,82,0.00,,,0.00,Rainwise IP-100,2013-09-17 11:25:00,
2013-09-17 07:30:00,81.8,76.0,30.00,East,90,3.0,7.0,83,0.00,,,0.00,Rainwise IP-100,2013-09-17 11:30:00,
2013-09-17 07:35:00,81.8,76.0,30.01,East,90,4.2,8.0,83,0.00,,,0.00,Rainwise IP-100,2013-09-17 11:35:00,
2013-09-17 07:40:00,81.8,76.0,30.00,ENE,67,4.0,8.0,83,0.00,,,0.00,Rainwise IP-100,2013-09-17 11:40:00,
2013-09-17 07:45:00,81.9,76.0,30.00,NE,45,7.7,8.0,82,0.00,,,0.00,Rainwise IP-100,2013-09-17 11:45:00,
2013-09-17 07:51:00,82.2,76.0,30.00,East,90,6.1,7.0,81,0.00,,,0.00,Rainwise IP-100,2013-09-17 11:51:00,
2013-09-17 07:56:00,82.3,76.0,30.00,ENE,67,3.7,8.0,82,0.00,,,0.00,Rainwise IP-100,2013-09-17 11:56:00,
2013-09-17 08:00:00,82.3,76.0,30.00,ENE,67,4.4,8.0,82,0.00,,,0.00,Rainwise IP-100,2013-09-17 12:00:00,
2013-09-17 08:06:00,82.2,76.0,30.01,ENE,67,3.0,8.0,83,0.00,,,0.00,Rainwise IP-100,2013-09-17 12:06:00,
2013-09-17 08:11:00,82.2,76.0,30.01,East,90,4.2,6.0,83,0.00,,,0.00,Rainwise IP-100,2013-09-17 12:11:00,
2013-09-17 08:16:00,82.3,76.0,30.01,ESE,112,4.2,6.0,83,0.00,,,0.00,Rainwise IP-100,2013-09-17 12:16:00,
2013-09-17 08:21:00,82.3,76.0,30.01,ENE,67,4.0,6.0,82,0.00,,,0.00,Rainwise IP-100,2013-09-17 12:21:00,
2013-09-17 08:26:00,82.4,76.0,30.02,East,90,4.9,7.0,82,0.00,,,0.00,Rainwise IP-100,2013-09-17 12:26:00,
2013-09-17 08:31:00,82.5,76.0,30.01,ENE,67,1.6,7.0,81,0.00,,,0.00,Rainwise IP-100,2013-09-17 12:31:00,
2013-09-17 08:36:00,82.5,76.0,30.02,East,90,3.0,6.0,81,0.00,,,0.00,Rainwise IP-100,2013-09-17 12:36:00,
2013-09-17 08:42:00,82.2,76.0,30.03,ESE,112,10.5,16.0,82,0.00,,,0.00,Rainwise IP-100,2013-09-17 12:42:00,
2013-09-17 08:47:00,80.7,75.0,30.03,SE,135,7.5,21.0,83,0.00,,,0.00,Rainwise IP-100,2013-09-17 12:47:00,
2013-09-17 08:52:00,78.5,73.0,30.04,SSE,157,8.2,11.0,85,0.30,,,0.05,Rainwise IP-100,2013-09-17 12:52:00,
2013-09-17 08:57:00,76.8,72.0,30.04,SSE,157,10.0,17.0,87,0.60,,,0.11,Rainwise IP-100,2013-09-17 12:57:00,
2013-09-17 09:02:00,75.2,71.0,30.04,SSE,157,6.5,10.0,88,0.78,,,0.18,Rainwise IP-100,2013-09-17 13:02:00,
2013-09-17 09:07:00,74.5,71.0,30.04,SSW,202,3.5,9.0,89,0.66,,,0.21,Rainwise IP-100,2013-09-17 13:07:00,
2013-09-17 09:12:00,74.2,71.0,30.04,SSW,202,3.5,7.0,90,0.30,,,0.23,Rainwise IP-100,2013-09-17 13:12:00,
2013-09-17 09:17:00,73.9,71.0,30.04,SSW,202,2.3,6.0,90,0.18,,,0.24,Rainwise IP-100,2013-09-17 13:17:00,
2013-09-17 09:23:00,73.5,71.0,30.04,SSW,202,1.9,4.0,91,0.12,,,0.25,Rainwise IP-100,2013-09-17 13:23:00,
2013-09-17 09:28:00,73.5,71.0,30.04,SSE,157,1.2,4.0,91,0.12,,,0.26,Rainwise IP-100,2013-09-17 13:28:00,
2013-09-17 09:33:00,73.8,71.0,30.04,SSE,157,0.0,2.0,92,0.12,,,0.27,Rainwise IP-100,2013-09-17 13:33:00,
2013-09-17 09:38:00,74.1,71.0,30.05,SSE,157,0.0,0.0,92,0.06,,,0.27,Rainwise IP-100,2013-09-17 13:38:00,
2013-09-17 09:43:00,74.5,72.0,30.05,SSE,157,0.0,0.0,93,0.00,,,0.27,Rainwise IP-100,2013-09-17 13:43:00,
2013-09-17 09:48:00,74.8,72.0,30.04,West,270,2.1,3.0,93,0.06,,,0.28,Rainwise IP-100,2013-09-17 13:48:00,
2013-09-17 09:53:00,74.9,73.0,30.05,West,270,1.2,3.0,93,0.06,,,0.28,Rainwise IP-100,2013-09-17 13:53:00,
2013-09-17 09:59:00,74.9,73.0,30.04,West,270,0.0,3.0,93,0.00,,,0.28,Rainwise IP-100,2013-09-17 13:59:00,
2013-09-17 10:04:00,75.0,73.0,30.04,West,270,1.6,1.6,94,0.00,,,0.28,Rainwise IP-100,2013-09-17 14:04:00,
2013-09-17 10:09:00,75.2,73.0,30.05,West,270,0.0,1.0,94,0.00,,,0.28,Rainwise IP-100,2013-09-17 14:09:00,
2013-09-17 10:14:00,75.3,73.0,30.05,West,270,0.0,1.0,94,0.00,,,0.28,Rainwise IP-100,2013-09-17 14:14:00,
2013-09-17 10:19:00,75.6,73.0,30.05,WNW,292,1.6,1.6,94,0.00,,,0.28,Rainwise IP-100,2013-09-17 14:19:00,
2013-09-17 10:24:00,76.0,74.0,30.05,NNW,337,1.6,3.0,94,0.00,,,0.28,Rainwise IP-100,2013-09-17 14:24:00,
2013-09-17 10:29:00,76.2,74.0,30.06,North,360,2.1,6.0,94,0.00,,,0.28,Rainwise IP-100,2013-09-17 14:29:00,
2013-09-17 10:34:00,76.0,74.0,30.05,North,360,0.0,6.0,94,0.00,,,0.28,Rainwise IP-100,2013-09-17 14:34:00,
2013-09-17 10:40:00,75.8,73.0,30.06,NNW,337,1.2,4.0,94,0.00,,,0.28,Rainwise IP-100,2013-09-17 14:40:00,
2013-09-17 10:45:00,76.0,74.0,30.05,NNE,22,0.0,4.0,94,0.00,,,0.28,Rainwise IP-100,2013-09-17 14:45:00,
2013-09-17 10:50:00,76.2,74.0,30.06,NE,45,3.3,4.0,94,0.00,,,0.28,Rainwise IP-100,2013-09-17 14:50:00,
2013-09-17 10:55:00,76.6,74.0,30.05,NNE,22,2.6,4.0,94,0.00,,,0.28,Rainwise IP-100,2013-09-17 14:55:00,
2013-09-17 11:00:00,77.2,75.0,30.05,NNW,337,1.4,5.0,93,0.00,,,0.28,Rainwise IP-100,2013-09-17 15:00:00,
2013-09-17 11:05:00,77.5,75.0,30.05,NNE,22,1.4,3.0,93,0.00,,,0.28,Rainwise IP-100,2013-09-17 15:05:00,
2013-09-17 11:10:00,77.9,76.0,30.05,ENE,67,1.6,3.0,93,0.00,,,0.28,Rainwise IP-100,2013-09-17 15:10:00,
2013-09-17 11:16:00,78.0,76.0,30.05,NE,45,3.3,5.0,93,0.00,,,0.28,Rainwise IP-100,2013-09-17 15:16:00,
2013-09-17 11:21:00,78.3,76.0,30.05,NNE,22,3.3,5.0,92,0.00,,,0.28,Rainwise IP-100,2013-09-17 15:21:00,
2013-09-17 11:26:00,78.7,76.0,30.06,NNE,22,0.0,4.0,92,0.00,,,0.28,Rainwise IP-100,2013-09-17 15:26:00,
2013-09-17 11:31:00,79.2,76.0,30.05,ENE,67,2.6,3.0,91,0.00,,,0.28,Rainwise IP-100,2013-09-17 15:31:00,
2013-09-17 11:36:00,79.6,76.0,30.05,NE,45,5.8,7.0,89,0.00,,,0.28,Rainwise IP-100,2013-09-17 15:36:00,
2013-09-17 11:41:00,80.3,76.0,30.05,NNE,22,3.3,6.0,87,0.00,,,0.28,Rainwise IP-100,2013-09-17 15:41:00,
2013-09-17 11:46:00,81.1,76.0,30.05,NNW,337,5.1,7.0,85,0.00,,,0.28,Rainwise IP-100,2013-09-17 15:46:00,
2013-09-17 11:51:00,81.8,76.0,30.06,NNE,22,2.6,7.0,83,0.00,,,0.28,Rainwise IP-100,2013-09-17 15:51:00,
2013-09-17 11:57:00,82.6,76.0,30.06,NNE,22,4.4,6.0,81,0.00,,,0.28,Rainwise IP-100,2013-09-17 15:57:00,
2013-09-17 12:02:00,83.3,76.0,30.06,ENE,67,3.5,8.0,80,0.00,,,0.28,Rainwise IP-100,2013-09-17 16:02:00,
2013-09-17 12:07:00,83.6,76.0,30.06,NNE,22,2.6,7.0,79,0.00,,,0.28,Rainwise IP-100,2013-09-17 16:07:00,
2013-09-17 12:12:00,83.8,76.0,30.05,NNE,22,5.4,8.0,78,0.00,,,0.28,Rainwise IP-100,2013-09-17 16:12:00,
2013-09-17 12:17:00,84.1,76.0,30.06,NNW,337,8.2,8.2,78,0.00,,,0.28,Rainwise IP-100,2013-09-17 16:17:00,
2013-09-17 12:22:00,84.4,76.0,30.06,NNE,22,9.3,9.3,78,0.00,,,0.28,Rainwise IP-100,2013-09-17 16:22:00,
2013-09-17 12:27:00,84.1,76.0,30.05,NE,45,10.3,14.0,77,0.00,,,0.28,Rainwise IP-100,2013-09-17 16:27:00,
2013-09-17 12:33:00,83.2,75.0,30.05,NNW,337,12.1,12.1,77,0.00,,,0.28,Rainwise IP-100,2013-09-17 16:33:00,
2013-09-17 12:38:00,82.4,75.0,30.05,NNW,337,9.3,13.0,79,0.00,,,0.28,Rainwise IP-100,2013-09-17 16:38:00,
2013-09-17 12:43:00,81.7,75.0,30.04,NE,45,9.6,13.0,82,0.00,,,0.28,Rainwise IP-100,2013-09-17 16:43:00,
2013-09-17 12:48:00,81.7,75.0,30.04,NE,45,9.6,13.0,82,0.00,,,0.28,Rainwise IP-100,2013-09-17 16:48:00,
2013-09-17 12:53:00,82.2,76.0,30.03,NE,45,8.9,14.0,82,0.00,,,0.28,Rainwise IP-100,2013-09-17 16:53:00,
2013-09-17 12:58:00,82.7,76.0,30.04,NNE,22,7.7,11.0,80,0.00,,,0.28,Rainwise IP-100,2013-09-17 16:58:00,
2013-09-17 13:03:00,83.2,76.0,30.03,NNW,337,12.1,13.0,80,0.00,,,0.28,Rainwise IP-100,2013-09-17 17:03:00,
2013-09-17 13:08:00,83.8,77.0,30.03,NNE,22,8.6,16.0,80,0.00,,,0.28,Rainwise IP-100,2013-09-17 17:08:00,
2013-09-17 13:14:00,84.1,76.0,30.03,NNW,337,9.6,12.0,79,0.00,,,0.28,Rainwise IP-100,2013-09-17 17:14:00,
2013-09-17 13:19:00,84.2,76.0,30.02,NNE,22,8.4,13.0,77,0.00,,,0.28,Rainwise IP-100,2013-09-17 17:19:00,
2013-09-17 13:24:00,84.3,76.0,30.02,NNW,337,6.3,11.0,76,0.00,,,0.28,Rainwise IP-100,2013-09-17 17:24:00,
2013-09-17 13:29:00,83.7,75.0,30.03,North,360,2.1,15.0,75,0.00,,,0.28,Rainwise IP-100,2013-09-17 17:29:00,
2013-09-17 13:34:00,82.9,74.0,30.03,NNE,22,9.6,13.0,76,0.00,,,0.28,Rainwise IP-100,2013-09-17 17:34:00,
2013-09-17 13:39:00,82.4,74.0,30.02,NNW,337,8.6,11.0,77,0.00,,,0.28,Rainwise IP-100,2013-09-17 17:39:00,
2013-09-17 13:44:00,82.0,74.0,30.02,NNE,22,11.0,15.0,78,0.00,,,0.28,Rainwise IP-100,2013-09-17 17:44:00,
2013-09-17 13:50:00,81.4,74.0,30.02,ENE,67,9.1,15.0,80,0.00,,,0.28,Rainwise IP-100,2013-09-17 17:50:00,
2013-09-17 13:55:00,80.8,74.0,30.02,NE,45,7.7,15.0,82,0.00,,,0.28,Rainwise IP-100,2013-09-17 17:55:00,
2013-09-17 14:00:00,80.5,74.0,30.02,NE,45,8.6,14.0,83,0.00,,,0.28,Rainwise IP-100,2013-09-17 18:00:00,
2013-09-17 14:05:00,80.4,74.0,30.02,NE,45,14.0,14.0,83,0.00,,,0.28,Rainwise IP-100,2013-09-17 18:05:00,
2013-09-17 14:10:00,80.4,75.0,30.02,NNE,22,8.6,14.0,84,0.00,,,0.28,Rainwise IP-100,2013-09-17 18:10:00,
2013-09-17 14:15:00,80.5,75.0,30.01,ENE,67,9.1,16.0,84,0.00,,,0.28,Rainwise IP-100,2013-09-17 18:15:00,
2013-09-17 14:20:00,80.1,74.0,30.01,NNE,22,13.5,18.0,84,0.00,,,0.28,Rainwise IP-100,2013-09-17 18:20:00,
2013-09-17 14:25:00,79.6,74.0,30.01,ENE,67,11.4,18.0,83,0.00,,,0.28,Rainwise IP-100,2013-09-17 18:25:00,
2013-09-17 14:31:00,79.7,74.0,30.01,NNE,22,10.0,12.0,84,0.00,,,0.28,Rainwise IP-100,2013-09-17 18:31:00,
2013-09-17 14:36:00,79.7,74.0,30.01,NE,45,3.5,11.0,85,0.00,,,0.28,Rainwise IP-100,2013-09-17 18:36:00,
2013-09-17 14:41:00,79.6,74.0,30.00,ENE,67,4.0,8.0,85,0.00,,,0.28,Rainwise IP-100,2013-09-17 18:41:00,
2013-09-17 14:46:00,79.7,75.0,30.00,NNE,22,3.7,10.0,86,0.00,,,0.28,Rainwise IP-100,2013-09-17 18:46:00,
2013-09-17 14:51:00,79.8,75.0,30.00,North,360,7.5,10.0,86,0.00,,,0.28,Rainwise IP-100,2013-09-17 18:51:00,
2013-09-17 14:56:00,80.0,76.0,30.00,North,360,7.2,9.0,87,0.00,,,0.28,Rainwise IP-100,2013-09-17 18:56:00,
2013-09-17 15:01:00,80.2,76.0,30.01,ENE,67,4.9,10.0,87,0.00,,,0.28,Rainwise IP-100,2013-09-17 19:01:00,
2013-09-17 15:07:00,80.2,76.0,30.01,NNW,337,8.2,14.0,87,0.00,,,0.28,Rainwise IP-100,2013-09-17 19:07:00,
2013-09-17 15:12:00,80.3,75.0,30.01,North,360,13.3,14.0,86,0.00,,,0.28,Rainwise IP-100,2013-09-17 19:12:00,
2013-09-17 15:17:00,80.4,76.0,30.00,NNW,337,7.5,13.0,86,0.00,,,0.28,Rainwise IP-100,2013-09-17 19:17:00,
2013-09-17 15:22:00,80.4,76.0,30.00,North,360,7.9,16.0,86,0.00,,,0.28,Rainwise IP-100,2013-09-17 19:22:00,
2013-09-17 15:27:00,80.4,76.0,30.00,NE,45,9.1,16.0,86,0.00,,,0.28,Rainwise IP-100,2013-09-17 19:27:00,
2013-09-17 15:32:00,80.2,75.0,29.98,NE,45,14.0,18.0,86,0.00,,,0.28,Rainwise IP-100,2013-09-17 19:32:00,
2013-09-17 15:37:00,79.7,75.0,29.99,NE,45,8.9,17.0,86,0.00,,,0.28,Rainwise IP-100,2013-09-17 19:37:00,
2013-09-17 15:42:00,79.2,75.0,29.98,NNE,22,11.4,14.0,87,0.00,,,0.28,Rainwise IP-100,2013-09-17 19:42:00,
2013-09-17 15:48:00,78.9,75.0,29.98,North,360,6.5,20.0,88,0.00,,,0.28,Rainwise IP-100,2013-09-17 19:48:00,
2013-09-17 15:53:00,78.7,75.0,29.98,ENE,67,10.7,10.7,89,0.00,,,0.28,Rainwise IP-100,2013-09-17 19:53:00,
2013-09-17 15:58:00,78.5,75.0,29.99,NNE,22,10.3,16.0,89,0.00,,,0.28,Rainwise IP-100,2013-09-17 19:58:00,
2013-09-17 16:03:00,78.5,74.0,29.99,NNE,22,13.1,13.1,87,0.00,,,0.28,Rainwise IP-100,2013-09-17 20:03:00,
2013-09-17 16:08:00,79.1,74.0,29.99,NNE,22,5.4,16.0,86,0.00,,,0.28,Rainwise IP-100,2013-09-17 20:08:00,
2013-09-17 16:13:00,79.5,74.0,29.99,NNE,22,8.2,13.0,85,0.00,,,0.28,Rainwise IP-100,2013-09-17 20:13:00,
2013-09-17 16:18:00,79.6,74.0,29.99,NE,45,11.0,14.0,84,0.00,,,0.28,Rainwise IP-100,2013-09-17 20:18:00,
2013-09-17 16:24:00,79.7,74.0,29.98,East,90,8.9,15.0,84,0.00,,,0.28,Rainwise IP-100,2013-09-17 20:24:00,
2013-09-17 16:29:00,79.8,74.0,29.98,NE,45,9.6,14.0,85,0.00,,,0.28,Rainwise IP-100,2013-09-17 20:29:00,
2013-09-17 16:34:00,79.5,74.0,29.98,NE,45,11.4,19.0,84,0.00,,,0.28,Rainwise IP-100,2013-09-17 20:34:00,
2013-09-17 16:39:00,79.5,73.0,29.97,East,90,13.8,15.0,82,0.00,,,0.28,Rainwise IP-100,2013-09-17 20:39:00,
2013-09-17 16:44:00,79.5,73.0,29.97,NNE,22,14.9,18.0,82,0.00,,,0.28,Rainwise IP-100,2013-09-17 20:44:00,
2013-09-17 16:49:00,79.0,73.0,29.97,ENE,67,10.0,17.0,83,0.00,,,0.28,Rainwise IP-100,2013-09-17 20:49:00,
2013-09-17 16:54:00,79.0,73.0,29.98,ENE,67,7.5,17.0,83,0.00,,,0.28,Rainwise IP-100,2013-09-17 20:54:00,
2013-09-17 16:59:00,79.3,73.0,29.97,NE,45,12.4,15.0,83,0.00,,,0.28,Rainwise IP-100,2013-09-17 20:59:00,
2013-09-17 17:05:00,79.4,73.0,29.97,NE,45,13.5,15.0,82,0.00,,,0.28,Rainwise IP-100,2013-09-17 21:05:00,
2013-09-17 17:10:00,79.5,73.0,29.96,ENE,67,13.1,16.0,81,0.00,,,0.28,Rainwise IP-100,2013-09-17 21:10:00,
2013-09-17 17:15:00,79.6,73.0,29.96,NE,45,10.7,16.0,81,0.00,,,0.28,Rainwise IP-100,2013-09-17 21:15:00,
2013-09-17 17:20:00,79.6,73.0,29.96,NE,45,10.3,18.0,82,0.00,,,0.28,Rainwise IP-100,2013-09-17 21:20:00,
2013-09-17 17:25:00,79.7,74.0,29.96,ENE,67,8.4,17.0,84,0.00,,,0.28,Rainwise IP-100,2013-09-17 21:25:00,
2013-09-17 17:30:00,79.5,74.0,29.96,NE,45,10.3,17.0,85,0.00,,,0.28,Rainwise IP-100,2013-09-17 21:30:00,
2013-09-17 17:35:00,79.5,75.0,29.96,NNE,22,7.7,15.0,86,0.00,,,0.28,Rainwise IP-100,2013-09-17 21:35:00,
2013-09-17 17:41:00,79.5,75.0,29.96,NE,45,9.3,14.0,87,0.00,,,0.28,Rainwise IP-100,2013-09-17 21:41:00,
2013-09-17 17:46:00,79.5,75.0,29.97,ENE,67,13.3,15.0,87,0.00,,,0.28,Rainwise IP-100,2013-09-17 21:46:00,
2013-09-17 17:51:00,79.4,75.0,29.96,North,360,6.5,19.0,88,0.00,,,0.28,Rainwise IP-100,2013-09-17 21:51:00,
2013-09-17 17:56:00,79.2,75.0,29.97,NNW,337,7.5,11.0,87,0.00,,,0.28,Rainwise IP-100,2013-09-17 21:56:00,
2013-09-17 18:01:00,79.3,75.0,29.97,NE,45,11.4,15.0,87,0.00,,,0.28,Rainwise IP-100,2013-09-17 22:01:00,
2013-09-17 18:06:00,79.4,74.0,29.96,NNE,22,14.7,17.0,86,0.00,,,0.28,Rainwise IP-100,2013-09-17 22:06:00,
2013-09-17 18:11:00,79.4,74.0,29.97,NNE,22,7.5,17.0,85,0.00,,,0.28,Rainwise IP-100,2013-09-17 22:11:00,
2013-09-17 18:16:00,79.5,74.0,29.96,NE,45,9.1,15.0,85,0.00,,,0.28,Rainwise IP-100,2013-09-17 22:16:00,
2013-09-17 18:22:00,79.6,74.0,29.96,NE,45,10.0,16.0,84,0.00,,,0.28,Rainwise IP-100,2013-09-17 22:22:00,
2013-09-17 18:27:00,79.7,74.0,29.96,ENE,67,13.8,16.0,84,0.00,,,0.28,Rainwise IP-100,2013-09-17 22:27:00,
2013-09-17 18:32:00,79.8,74.0,29.96,NE,45,8.9,17.0,83,0.00,,,0.28,Rainwise IP-100,2013-09-17 22:32:00,
2013-09-17 18:37:00,79.9,74.0,29.95,NE,45,12.1,16.0,83,0.00,,,0.28,Rainwise IP-100,2013-09-17 22:37:00,
2013-09-17 18:42:00,80.1,74.0,29.95,NNE,22,15.4,18.0,84,0.00,,,0.28,Rainwise IP-100,2013-09-17 22:42:00,
2013-09-17 18:47:00,80.0,75.0,29.95,NE,45,14.9,17.0,85,0.00,,,0.28,Rainwise IP-100,2013-09-17 22:47:00,
2013-09-17 18:52:00,80.0,76.0,29.95,ENE,67,11.4,19.0,87,0.00,,,0.28,Rainwise IP-100,2013-09-17 22:52:00,
2013-09-17 18:58:00,80.0,76.0,29.95,NNE,22,10.5,17.0,87,0.00,,,0.28,Rainwise IP-100,2013-09-17 22:58:00,
2013-09-17 19:03:00,80.0,76.0,29.95,NNE,22,11.2,19.0,87,0.00,,,0.28,Rainwise IP-100,2013-09-17 23:03:00,
2013-09-17 19:08:00,80.0,75.0,29.94,NE,45,11.0,23.0,86,0.00,,,0.28,Rainwise IP-100,2013-09-17 23:08:00,
2013-09-17 19:13:00,80.1,75.0,29.95,ENE,67,15.4,20.0,86,0.00,,,0.28,Rainwise IP-100,2013-09-17 23:13:00,
2013-09-17 19:18:00,80.3,75.0,29.95,ENE,67,11.4,19.0,86,0.00,,,0.28,Rainwise IP-100,2013-09-17 23:18:00,
2013-09-17 19:23:00,80.4,75.0,29.95,NE,45,13.8,19.0,85,0.00,,,0.28,Rainwise IP-100,2013-09-17 23:23:00,
2013-09-17 19:28:00,80.4,75.0,29.95,ENE,67,11.9,18.0,84,0.00,,,0.28,Rainwise IP-100,2013-09-17 23:28:00,
2013-09-17 19:33:00,80.5,75.0,29.96,ENE,67,10.0,18.0,84,0.00,,,0.28,Rainwise IP-100,2013-09-17 23:33:00,
2013-09-17 19:39:00,80.6,74.0,29.96,ENE,67,6.1,19.0,83,0.00,,,0.28,Rainwise IP-100,2013-09-17 23:39:00,
2013-09-17 19:44:00,80.6,74.0,29.96,NE,45,13.1,14.0,82,0.00,,,0.28,Rainwise IP-100,2013-09-17 23:44:00,
2013-09-17 19:49:00,80.8,74.0,29.97,ENE,67,9.1,13.0,82,0.00,,,0.28,Rainwise IP-100,2013-09-17 23:49:00,
2013-09-17 19:54:00,80.9,75.0,29.98,NE,45,7.5,15.0,82,0.00,,,0.28,Rainwise IP-100,2013-09-17 23:54:00,
2013-09-17 19:59:00,81.0,75.0,29.98,ENE,67,6.5,14.0,82,0.00,,,0.28,Rainwise IP-100,2013-09-17 23:59:00,
2013-09-17 20:04:00,81.0,75.0,29.98,ENE,67,10.3,12.0,82,0.00,,,0.28,Rainwise IP-100,2013-09-18 00:04:00,
2013-09-17 20:09:00,81.1,75.0,29.98,ENE,67,11.2,13.0,82,0.00,,,0.28,Rainwise IP-100,2013-09-18 00:09:00,
2013-09-17 20:15:00,81.3,75.0,29.98,NE,45,7.5,14.0,82,0.00,,,0.28,Rainwise IP-100,2013-09-18 00:15:00,
2013-09-17 20:20:00,81.4,76.0,29.98,ENE,67,5.4,14.0,83,0.00,,,0.28,Rainwise IP-100,2013-09-18 00:20:00,
2013-09-17 20:25:00,81.4,76.0,29.97,NE,45,9.6,15.0,83,0.00,,,0.28,Rainwise IP-100,2013-09-18 00:25:00,
2013-09-17 20:30:00,81.4,76.0,29.98,ENE,67,9.8,14.0,83,0.00,,,0.28,Rainwise IP-100,2013-09-18 00:30:00,
2013-09-17 20:35:00,81.5,76.0,29.98,NNW,337,8.9,17.0,83,0.00,,,0.28,Rainwise IP-100,2013-09-18 00:35:00,
2013-09-17 20:40:00,81.5,76.0,29.98,NE,45,6.8,14.0,83,0.00,,,0.28,Rainwise IP-100,2013-09-18 00:40:00,
2013-09-17 20:45:00,81.6,76.0,29.98,NE,45,9.8,13.0,83,0.00,,,0.28,Rainwise IP-100,2013-09-18 00:45:00,
2013-09-17 20:50:00,81.6,76.0,29.99,NE,45,10.0,16.0,84,0.00,,,0.28,Rainwise IP-100,2013-09-18 00:50:00,
2013-09-17 20:56:00,81.6,76.0,29.99,NNE,22,11.2,13.0,84,0.00,,,0.28,Rainwise IP-100,2013-09-18 00:56:00,
2013-09-17 21:01:00,81.5,76.0,29.99,NE,45,13.1,16.0,84,0.00,,,0.28,Rainwise IP-100,2013-09-18 01:01:00,
2013-09-17 21:06:00,81.5,76.0,29.99,ENE,67,8.9,15.0,85,0.00,,,0.28,Rainwise IP-100,2013-09-18 01:06:00,
2013-09-17 21:11:00,81.6,76.0,29.99,NE,45,10.0,16.0,84,0.00,,,0.28,Rainwise IP-100,2013-09-18 01:11:00,
2013-09-17 21:16:00,81.7,76.0,29.99,East,90,6.5,16.0,83,0.00,,,0.28,Rainwise IP-100,2013-09-18 01:16:00,
2013-09-17 21:21:00,81.8,75.0,30.00,NNE,22,11.2,14.0,82,0.00,,,0.28,Rainwise IP-100,2013-09-18 01:21:00,
2013-09-17 21:26:00,81.8,75.0,30.00,NE,45,7.7,14.0,82,0.00,,,0.28,Rainwise IP-100,2013-09-18 01:26:00,
2013-09-17 21:32:00,81.8,75.0,30.00,ENE,67,10.7,14.0,82,0.00,,,0.28,Rainwise IP-100,2013-09-18 01:32:00,
2013-09-17 21:37:00,81.9,76.0,30.00,ENE,67,3.3,15.0,82,0.00,,,0.28,Rainwise IP-100,2013-09-18 01:37:00,
2013-09-17 21:42:00,81.9,76.0,29.99,NE,45,6.3,13.0,82,0.00,,,0.28,Rainwise IP-100,2013-09-18 01:42:00,
2013-09-17 21:47:00,81.9,76.0,30.00,ENE,67,6.3,14.0,83,0.00,,,0.28,Rainwise IP-100,2013-09-18 01:47:00,
2013-09-17 21:52:00,82.0,76.0,30.00,NE,45,12.4,14.0,83,0.00,,,0.28,Rainwise IP-100,2013-09-18 01:52:00,
2013-09-17 21:57:00,81.9,76.0,30.00,NE,45,10.7,15.0,83,0.00,,,0.28,Rainwise IP-100,2013-09-18 01:57:00,
2013-09-17 22:02:00,81.8,76.0,30.00,ENE,67,9.3,15.0,83,0.00,,,0.28,Rainwise IP-100,2013-09-18 02:02:00,
2013-09-17 22:07:00,81.9,76.0,30.00,ENE,67,5.8,14.0,83,0.00,,,0.28,Rainwise IP-100,2013-09-18 02:07:00,
2013-09-17 22:13:00,82.0,76.0,30.00,ENE,67,7.5,15.0,84,0.00,,,0.28,Rainwise IP-100,2013-09-18 02:13:00,
2013-09-17 22:18:00,82.1,76.0,30.00,ENE,67,8.2,16.0,84,0.00,,,0.28,Rainwise IP-100,2013-09-18 02:18:00,
2013-09-17 22:23:00,82.1,76.0,30.01,ENE,67,6.8,12.0,83,0.00,,,0.28,Rainwise IP-100,2013-09-18 02:23:00,
2013-09-17 22:28:00,82.1,76.0,30.00,ENE,67,6.1,14.0,82,0.00,,,0.28,Rainwise IP-100,2013-09-18 02:28:00,
2013-09-17 22:33:00,82.1,76.0,30.00,ENE,67,8.4,13.0,82,0.00,,,0.28,Rainwise IP-100,2013-09-18 02:33:00,
2013-09-17 22:38:00,82.1,76.0,30.00,ENE,67,8.9,12.0,82,0.00,,,0.28,Rainwise IP-100,2013-09-18 02:38:00,
2013-09-17 22:43:00,82.1,76.0,30.00,ENE,67,4.7,10.0,83,0.00,,,0.28,Rainwise IP-100,2013-09-18 02:43:00,
2013-09-17 22:49:00,81.9,76.0,30.01,ESE,112,2.6,10.0,84,0.00,,,0.28,Rainwise IP-100,2013-09-18 02:49:00,
2013-09-17 22:54:00,81.8,76.0,30.00,NE,45,5.6,7.0,83,0.00,,,0.28,Rainwise IP-100,2013-09-18 02:54:00,
2013-09-17 22:59:00,81.8,76.0,30.01,NE,45,1.4,12.0,83,0.00,,,0.28,Rainwise IP-100,2013-09-18 02:59:00,
2013-09-17 23:04:00,81.8,75.0,30.00,East,90,10.3,10.3,82,0.00,,,0.28,Rainwise IP-100,2013-09-18 03:04:00,
2013-09-17 23:09:00,81.8,75.0,30.01,ENE,67,4.7,10.0,82,0.00,,,0.28,Rainwise IP-100,2013-09-18 03:09:00,
2013-09-17 23:14:00,81.9,76.0,30.00,East,90,6.1,8.0,82,0.00,,,0.28,Rainwise IP-100,2013-09-18 03:14:00,
2013-09-17 23:19:00,81.7,76.0,30.00,East,90,3.3,8.0,83,0.00,,,0.28,Rainwise IP-100,2013-09-18 03:19:00,
2013-09-17 23:24:00,81.7,76.0,29.99,ESE,112,3.0,7.0,83,0.00,,,0.28,Rainwise IP-100,2013-09-18 03:24:00,
2013-09-17 23:30:00,81.7,76.0,29.99,East,90,9.1,11.0,84,0.00,,,0.28,Rainwise IP-100,2013-09-18 03:30:00,
2013-09-17 23:35:00,81.8,76.0,29.99,ENE,67,8.2,12.0,83,0.00,,,0.28,Rainwise IP-100,2013-09-18 03:35:00,
2013-09-17 23:40:00,81.9,76.0,30.00,ENE,67,5.1,10.0,83,0.00,,,0.28,Rainwise IP-100,2013-09-18 03:40:00,
2013-09-17 23:45:00,81.8,76.0,30.00,ENE,67,7.9,11.0,83,0.00,,,0.28,Rainwise IP-100,2013-09-18 03:45:00,
2013-09-17 23:50:00,81.7,75.0,30.00,ENE,67,5.4,9.0,82,0.00,,,0.28,Rainwise IP-100,2013-09-18 03:50:00,
2013-09-17 23:55:00,81.7,75.0,30.00,NE,45,4.4,9.0,82,0.00,,,0.28,Rainwise IP-100,2013-09-18 03:55:00,